SWA2137 KAUS-KCOS

Flight info

Callsign SWA2137
Flight time 1h 44m
Altitude 38000
Route ELOEL3 ABI J17 TBE DBRY5
Aircraft B737/M-SDE2E3FGHIRWXY/LB1

Departure

Time 2026-04-27 17:16
Airport Austin Bergstrom International Airport (KAUS)

Arrival

Time 2026-04-27 19:00
Airport City of Colorado Springs Municipal Airport (KCOS)
Time Latitude Longitude Altitude Speed Heading
2026-04-27 16:44 30.20143 -97.66637 526 ft 0 kts 351°
2026-04-27 17:04 30.20127 -97.66634 536 ft 4 kts 351°
2026-04-27 17:04 30.20100 -97.66629 526 ft 4 kts 351°
2026-04-27 17:05 30.20075 -97.66627 526 ft 4 kts 23°
2026-04-27 17:05 30.20063 -97.66642 526 ft 1 kts 85°
2026-04-27 17:05 30.20061 -97.66664 526 ft 1 kts 85°
2026-04-27 17:08 30.20062 -97.66655 526 ft 8 kts 82°
2026-04-27 17:09 30.20073 -97.66582 526 ft 9 kts 77°
2026-04-27 17:09 30.20089 -97.66509 526 ft 9 kts 83°
2026-04-27 17:09 30.20091 -97.66436 526 ft 9 kts 89°
2026-04-27 17:09 30.20049 -97.66394 526 ft 9 kts 169°
2026-04-27 17:10 30.19987 -97.66391 526 ft 9 kts 178°
2026-04-27 17:10 30.19930 -97.66383 526 ft 8 kts 151°
2026-04-27 17:10 30.19914 -97.66322 526 ft 8 kts 89°
2026-04-27 17:10 30.19915 -97.66257 526 ft 8 kts 88°
2026-04-27 17:11 30.19917 -97.66187 526 ft 9 kts 89°
2026-04-27 17:11 30.19925 -97.66021 526 ft 11 kts 69°
2026-04-27 17:11 30.19994 -97.65990 526 ft 12 kts 358°
2026-04-27 17:12 30.20172 -97.65995 526 ft 14 kts 359°
2026-04-27 17:12 30.20268 -97.65998 526 ft 14 kts 358°
2026-04-27 17:12 30.20362 -97.65977 526 ft 12 kts 51°
2026-04-27 17:13 30.20371 -97.65912 527 ft 0 kts 89°
2026-04-27 17:13 30.20371 -97.65910 527 ft 0 kts 89°
2026-04-27 17:14 30.20371 -97.65905 527 ft 1 kts 89°
2026-04-27 17:14 30.20371 -97.65896 527 ft 2 kts 88°
2026-04-27 17:14 30.20372 -97.65844 527 ft 7 kts 89°
2026-04-27 17:14 30.20356 -97.65794 528 ft 7 kts 152°
2026-04-27 17:15 30.20301 -97.65788 527 ft 11 kts 178°
2026-04-27 17:15 30.20039 -97.65781 525 ft 72 kts 178°
2026-04-27 17:15 30.19328 -97.65763 527 ft 130 kts 179°
2026-04-27 17:15 30.18284 -97.65726 688 ft 161 kts 178°
2026-04-27 17:16 30.17192 -97.65659 1389 ft 161 kts 179°
2026-04-27 17:16 30.16043 -97.65571 1937 ft 171 kts 178°
2026-04-27 17:16 30.14787 -97.65448 2365 ft 193 kts 178°
2026-04-27 17:16 30.13384 -97.65315 2754 ft 216 kts 178°
2026-04-27 17:17 30.11793 -97.65371 3138 ft 238 kts 191°
2026-04-27 17:17 30.10184 -97.65989 3586 ft 257 kts 208°
2026-04-27 17:17 30.08795 -97.67273 4470 ft 255 kts 233°
2026-04-27 17:18 30.08055 -97.71242 6251 ft 262 kts 271°
2026-04-27 17:18 30.08198 -97.73359 7068 ft 265 kts 272°
2026-04-27 17:18 30.08580 -97.75459 7875 ft 274 kts 291°
2026-04-27 17:18 30.09767 -97.77220 8780 ft 286 kts 317°
2026-04-27 17:19 30.11507 -97.78394 9748 ft 293 kts 330°
2026-04-27 17:19 30.13568 -97.78955 10020 ft 332 kts
2026-04-27 17:19 30.16056 -97.78251 9383 ft 384 kts
2026-04-27 17:19 30.18685 -97.78255 10338 ft 376 kts 348°
2026-04-27 17:20 30.21248 -97.78847 11185 ft 378 kts 345°
2026-04-27 17:20 30.21949 -97.79021 11387 ft 379 kts 345°
2026-04-27 17:21 30.23746 -97.79453 11870 ft 383 kts 346°
2026-04-27 17:21 30.26390 -97.80012 12617 ft 390 kts 348°
2026-04-27 17:21 30.29087 -97.80483 13390 ft 395 kts 349°
2026-04-27 17:22 30.31837 -97.80888 14136 ft 400 kts 350°
2026-04-27 17:22 30.34608 -97.81244 14963 ft 402 kts 351°
2026-04-27 17:22 30.37406 -97.81478 15799 ft 404 kts 351°
2026-04-27 17:22 30.40203 -97.81795 16603 ft 405 kts 348°
2026-04-27 17:23 30.42160 -97.81417 18916 ft 335 kts 18°
2026-04-27 17:23 30.44315 -97.80645 20087 ft 319 kts 355°
2026-04-27 17:23 30.46501 -97.80966 20396 ft 322 kts 334°
2026-04-27 17:23 30.48688 -97.81833 20583 ft 345 kts 334°
2026-04-27 17:24 30.51075 -97.82653 20747 ft 371 kts 338°
2026-04-27 17:24 30.53679 -97.83320 20906 ft 395 kts 342°
2026-04-27 17:24 30.56479 -97.83783 21039 ft 418 kts 348°
2026-04-27 17:24 30.59405 -97.84155 21369 ft 428 kts 347°
2026-04-27 17:25 30.62387 -97.84538 21933 ft 432 kts 348°
2026-04-27 17:25 30.65380 -97.84903 22595 ft 434 kts 348°
2026-04-27 17:25 30.68396 -97.85261 23203 ft 437 kts 348°
2026-04-27 17:25 30.71388 -97.85616 23709 ft 440 kts 348°
2026-04-27 17:26 30.74424 -97.86074 24197 ft 439 kts 342°
2026-04-27 17:26 30.77343 -97.87010 24722 ft 434 kts 335°
2026-04-27 17:26 30.80208 -97.88123 25251 ft 434 kts 334°
2026-04-27 17:26 30.83072 -97.89252 25733 ft 436 kts 334°
2026-04-27 17:27 30.85969 -97.90361 26169 ft 439 kts 335°
2026-04-27 17:27 30.88889 -97.91454 26622 ft 442 kts 335°
2026-04-27 17:27 30.91772 -97.92669 27062 ft 438 kts 329°
2026-04-27 17:27 30.94505 -97.94216 27518 ft 436 kts 326°
2026-04-27 17:28 30.97208 -97.95854 27958 ft 438 kts 325°
2026-04-27 17:28 30.99909 -97.97506 28402 ft 440 kts 324°
2026-04-27 17:28 31.05348 -98.00772 29205 ft 444 kts 325°
2026-04-27 17:29 31.08111 -98.02403 29608 ft 446 kts 325°
2026-04-27 17:29 31.10881 -98.04033 30122 ft 443 kts 325°
2026-04-27 17:29 31.13620 -98.05644 30687 ft 439 kts 324°
2026-04-27 17:29 31.16203 -98.07449 31255 ft 426 kts 317°
2026-04-27 17:30 31.18496 -98.09569 31779 ft 417 kts 310°
2026-04-27 17:30 31.22342 -98.14488 32759 ft 406 kts 304°
2026-04-27 17:30 31.24177 -98.16969 33247 ft 403 kts 304°
2026-04-27 17:31 31.26011 -98.19447 33742 ft 401 kts 304°
2026-04-27 17:31 31.27826 -98.21892 34263 ft 396 kts 304°
2026-04-27 17:31 31.29613 -98.24294 34624 ft 395 kts 304°
2026-04-27 17:31 31.31442 -98.26754 34858 ft 397 kts 304°
2026-04-27 17:32 31.33261 -98.29198 35122 ft 398 kts 304°
2026-04-27 17:32 31.36871 -98.34040 35792 ft 396 kts 304°
2026-04-27 17:32 31.38685 -98.36476 36020 ft 398 kts 304°
2026-04-27 17:33 31.40505 -98.38922 36245 ft 399 kts 304°
2026-04-27 17:33 31.42328 -98.41371 36581 ft 397 kts 304°
2026-04-27 17:33 31.44141 -98.43807 36918 ft 396 kts 304°
2026-04-27 17:33 31.45955 -98.46247 37187 ft 396 kts 304°
2026-04-27 17:34 31.47763 -98.48681 37401 ft 397 kts 304°
2026-04-27 17:34 31.49578 -98.51127 37663 ft 397 kts 304°
2026-04-27 17:34 31.51388 -98.53568 37901 ft 398 kts 304°
2026-04-27 17:35 31.54424 -98.57667 37867 ft 400 kts 303°
2026-04-27 17:35 31.58643 -98.63360 37852 ft 394 kts 303°
2026-04-27 17:36 31.62221 -98.68198 37858 ft 391 kts 303°
2026-04-27 17:36 31.65779 -98.73018 37870 ft 390 kts 303°
2026-04-27 17:37 31.68748 -98.77046 37891 ft 389 kts 303°
2026-04-27 17:37 31.72272 -98.81833 37901 ft 390 kts 303°
2026-04-27 17:38 31.75826 -98.86667 37913 ft 392 kts 303°
2026-04-27 17:38 31.79402 -98.91538 37910 ft 395 kts 303°
2026-04-27 17:39 31.82998 -98.96439 37905 ft 397 kts 303°
2026-04-27 17:39 31.86609 -99.01366 37909 ft 398 kts 303°
2026-04-27 17:40 31.90225 -99.06305 37899 ft 398 kts 303°
2026-04-27 17:40 31.93836 -99.11246 37879 ft 398 kts 303°
2026-04-27 17:41 31.97440 -99.16182 37869 ft 397 kts 303°
2026-04-27 17:41 32.01040 -99.21121 37857 ft 397 kts 303°
2026-04-27 17:42 32.04634 -99.26061 37851 ft 397 kts 302°
2026-04-27 17:42 32.08227 -99.31001 37845 ft 396 kts 302°
2026-04-27 17:43 32.11811 -99.35938 37843 ft 396 kts 302°
2026-04-27 17:43 32.15364 -99.40837 37863 ft 395 kts 302°
2026-04-27 17:44 32.18925 -99.45756 37843 ft 394 kts 302°
2026-04-27 17:44 32.22489 -99.50685 37845 ft 394 kts 302°
2026-04-27 17:45 32.26044 -99.55607 37876 ft 394 kts 302°
2026-04-27 17:45 32.29609 -99.60552 37853 ft 395 kts 302°
2026-04-27 17:46 32.33145 -99.65461 37844 ft 395 kts 302°
2026-04-27 17:46 32.36712 -99.70420 37926 ft 395 kts 302°
2026-04-27 17:47 32.40263 -99.75364 37926 ft 395 kts 302°
2026-04-27 17:47 32.43821 -99.80323 37899 ft 394 kts 302°
2026-04-27 17:48 32.47522 -99.85153 37894 ft 402 kts 309°
2026-04-27 17:48 32.52157 -99.89021 37904 ft 419 kts 320°
2026-04-27 17:49 32.57293 -99.92303 37882 ft 420 kts 321°
2026-04-27 17:49 32.62437 -99.95558 37868 ft 418 kts 320°
2026-04-27 17:50 32.67544 -99.98826 37856 ft 416 kts 320°
2026-04-27 17:50 32.75165 -100.03746 37838 ft 414 kts 320°
2026-04-27 17:51 32.80226 -100.07025 37855 ft 414 kts 320°
2026-04-27 17:51 32.85278 -100.10302 37833 ft 413 kts 320°
2026-04-27 17:52 32.90322 -100.13576 37842 ft 412 kts 320°
2026-04-27 17:52 32.95357 -100.16849 37851 ft 411 kts 320°
2026-04-27 17:53 33.00388 -100.20125 37843 ft 412 kts 320°
2026-04-27 17:53 33.05380 -100.23379 37844 ft 412 kts 319°
2026-04-27 17:54 33.10408 -100.26661 37840 ft 412 kts 319°
2026-04-27 17:54 33.15432 -100.29944 37847 ft 412 kts 319°
2026-04-27 17:55 33.20462 -100.33235 37845 ft 412 kts 319°
2026-04-27 17:55 33.25485 -100.36526 37889 ft 412 kts 319°
2026-04-27 17:56 33.30519 -100.39830 37849 ft 413 kts 319°
2026-04-27 17:56 33.35544 -100.43130 37849 ft 412 kts 319°
2026-04-27 17:57 33.40572 -100.46436 37836 ft 411 kts 319°
2026-04-27 17:57 33.45581 -100.49735 37845 ft 411 kts 319°
2026-04-27 17:58 33.50558 -100.53019 37883 ft 410 kts 319°
2026-04-27 17:58 33.55559 -100.56323 37847 ft 411 kts 319°
2026-04-27 17:59 33.60567 -100.59635 37836 ft 410 kts 319°
2026-04-27 17:59 33.65567 -100.62946 37839 ft 410 kts 319°
2026-04-27 18:00 33.70559 -100.66257 37840 ft 410 kts 318°
2026-04-27 18:00 33.75547 -100.69570 37886 ft 410 kts 318°
2026-04-27 18:01 33.80554 -100.72899 37852 ft 411 kts 318°
2026-04-27 18:01 33.85521 -100.76206 37834 ft 411 kts 318°
2026-04-27 18:02 33.90526 -100.79543 37839 ft 411 kts 318°
2026-04-27 18:02 33.95520 -100.82878 37834 ft 410 kts 318°
2026-04-27 18:03 34.00518 -100.86220 37864 ft 410 kts 318°
2026-04-27 18:03 34.05515 -100.89566 37835 ft 410 kts 318°
2026-04-27 18:04 34.10506 -100.92913 37830 ft 410 kts 318°
2026-04-27 18:04 34.15464 -100.96242 37825 ft 410 kts 318°
2026-04-27 18:05 34.20440 -100.99589 37823 ft 410 kts 318°
2026-04-27 18:05 34.25420 -101.02943 37845 ft 410 kts 317°
2026-04-27 18:06 34.30411 -101.06307 37826 ft 410 kts 317°
2026-04-27 18:06 34.35403 -101.09675 37820 ft 410 kts 317°
2026-04-27 18:07 34.40395 -101.13047 37823 ft 410 kts 317°
2026-04-27 18:07 34.45344 -101.16395 37816 ft 410 kts 317°
2026-04-27 18:08 34.50334 -101.19777 37817 ft 411 kts 317°
2026-04-27 18:08 34.55328 -101.23165 37809 ft 411 kts 317°
2026-04-27 18:09 34.60325 -101.26560 37810 ft 411 kts 317°
2026-04-27 18:09 34.65324 -101.29960 37802 ft 411 kts 317°
2026-04-27 18:10 34.70316 -101.33364 37803 ft 411 kts 317°
2026-04-27 18:10 34.75279 -101.36747 37807 ft 412 kts 317°
2026-04-27 18:11 34.80284 -101.40167 37802 ft 413 kts 317°
2026-04-27 18:11 34.85296 -101.43599 37797 ft 414 kts 317°
2026-04-27 18:12 34.90326 -101.47046 37809 ft 415 kts 317°
2026-04-27 18:12 34.95372 -101.50508 37825 ft 416 kts 317°
2026-04-27 18:13 35.00429 -101.53985 37804 ft 417 kts 317°
2026-04-27 18:13 35.05453 -101.57439 37798 ft 417 kts 317°
2026-04-27 18:14 35.10511 -101.60923 37796 ft 417 kts 317°
2026-04-27 18:14 35.15554 -101.64403 37798 ft 416 kts 317°
2026-04-27 18:15 35.18073 -101.66144 37928 ft 416 kts 317°
2026-04-27 18:15 35.20587 -101.67882 37962 ft 416 kts 317°
2026-04-27 18:15 35.25490 -101.71553 37926 ft 406 kts 311°
2026-04-27 18:16 35.29999 -101.75662 37933 ft 403 kts 310°
2026-04-27 18:16 35.34465 -101.79816 37892 ft 403 kts 310°
2026-04-27 18:17 35.38946 -101.83947 37873 ft 403 kts 310°
2026-04-27 18:17 35.43452 -101.88078 37833 ft 404 kts 310°
2026-04-27 18:18 35.47957 -101.92202 37814 ft 405 kts 310°
2026-04-27 18:18 35.52476 -101.96342 37807 ft 405 kts 310°
2026-04-27 18:19 35.56993 -102.00486 37818 ft 406 kts 310°
2026-04-27 18:19 35.61489 -102.04616 37858 ft 406 kts 310°
2026-04-27 18:20 35.66019 -102.08785 37885 ft 407 kts 310°
2026-04-27 18:20 35.70544 -102.12955 37880 ft 406 kts 310°
2026-04-27 18:21 35.75074 -102.17134 37879 ft 406 kts 310°
2026-04-27 18:21 35.78828 -102.20601 37798 ft 405 kts 310°
2026-04-27 18:22 35.83328 -102.24765 37797 ft 404 kts 310°
2026-04-27 18:22 35.88554 -102.29610 37862 ft 404 kts 310°
2026-04-27 18:23 35.92321 -102.33106 37881 ft 404 kts 310°
2026-04-27 18:23 35.96790 -102.37260 37896 ft 405 kts 310°
2026-04-27 18:24 36.01288 -102.41447 37948 ft 405 kts 310°
2026-04-27 18:24 36.05794 -102.45647 37936 ft 406 kts 310°
2026-04-27 18:25 36.10308 -102.49862 37946 ft 407 kts 310°
2026-04-27 18:25 36.14832 -102.54092 37910 ft 408 kts 310°
2026-04-27 18:26 36.19359 -102.58329 37888 ft 408 kts 310°
2026-04-27 18:26 36.23892 -102.62579 37862 ft 408 kts 310°
2026-04-27 18:27 36.28390 -102.66803 37833 ft 408 kts 310°
2026-04-27 18:27 36.32916 -102.71059 37826 ft 408 kts 310°
2026-04-27 18:28 36.37451 -102.75330 37790 ft 409 kts 310°
2026-04-27 18:28 36.41982 -102.79602 37802 ft 409 kts 310°
2026-04-27 18:29 36.46499 -102.83870 37793 ft 408 kts 310°
2026-04-27 18:29 36.51018 -102.88146 37787 ft 407 kts 310°
2026-04-27 18:30 36.55485 -102.92378 37799 ft 407 kts 310°
2026-04-27 18:30 36.59984 -102.96649 37796 ft 406 kts 310°
2026-04-27 18:31 36.64475 -103.00918 37790 ft 406 kts 310°
2026-04-27 18:31 36.68958 -103.05186 37790 ft 405 kts 310°
2026-04-27 18:32 36.73435 -103.09453 37792 ft 405 kts 310°
2026-04-27 18:32 36.77921 -103.13740 37812 ft 406 kts 310°
2026-04-27 18:33 36.82380 -103.18011 37799 ft 406 kts 310°
2026-04-27 18:33 36.86865 -103.22315 37791 ft 406 kts 310°
2026-04-27 18:34 36.91346 -103.26617 37797 ft 406 kts 310°
2026-04-27 18:34 36.95817 -103.30929 37784 ft 405 kts 310°
2026-04-27 18:35 37.00296 -103.35243 37640 ft 411 kts 310°
2026-04-27 18:35 37.02570 -103.37438 37309 ft 412 kts 310°
2026-04-27 18:35 37.04831 -103.39614 36981 ft 408 kts 310°
2026-04-27 18:36 37.07067 -103.41766 36672 ft 403 kts 310°
2026-04-27 18:36 37.09285 -103.43907 36374 ft 402 kts 310°
2026-04-27 18:36 37.11495 -103.46048 36061 ft 401 kts 310°
2026-04-27 18:36 37.13701 -103.48187 35781 ft 400 kts 310°
2026-04-27 18:37 37.15902 -103.50321 35501 ft 399 kts 309°
2026-04-27 18:37 37.18100 -103.52455 35244 ft 398 kts 309°
2026-04-27 18:37 37.20260 -103.54553 34964 ft 398 kts 309°
2026-04-27 18:37 37.22447 -103.56678 34688 ft 398 kts 309°
2026-04-27 18:38 37.24635 -103.58804 34404 ft 397 kts 309°
2026-04-27 18:38 37.26762 -103.60984 34125 ft 391 kts 306°
2026-04-27 18:38 37.28766 -103.63271 33850 ft 388 kts 304°
2026-04-27 18:38 37.30739 -103.65581 33533 ft 387 kts 304°
2026-04-27 18:39 37.32701 -103.67898 33271 ft 387 kts 304°
2026-04-27 18:39 37.34676 -103.70238 33008 ft 393 kts 304°
2026-04-27 18:39 37.36681 -103.72610 32756 ft 398 kts 305°
2026-04-27 18:39 37.38694 -103.74978 32538 ft 396 kts 305°
2026-04-27 18:40 37.40706 -103.77334 32275 ft 393 kts 306°
2026-04-27 18:40 37.42685 -103.79649 32008 ft 391 kts 306°
2026-04-27 18:40 37.44674 -103.81971 31775 ft 390 kts 306°
2026-04-27 18:40 37.46659 -103.84296 31504 ft 389 kts 306°
2026-04-27 18:41 37.48632 -103.86613 31283 ft 387 kts 305°
2026-04-27 18:41 37.50589 -103.88914 31033 ft 385 kts 305°
2026-04-27 18:41 37.52544 -103.91215 30788 ft 383 kts 305°
2026-04-27 18:41 37.54484 -103.93501 30536 ft 382 kts 305°
2026-04-27 18:42 37.56422 -103.95784 30293 ft 380 kts 306°
2026-04-27 18:42 37.57702 -103.97293 30138 ft 379 kts 306°
2026-04-27 18:42 37.60273 -104.00327 29813 ft 378 kts 306°
2026-04-27 18:42 37.62190 -104.02591 29540 ft 377 kts 306°
2026-04-27 18:43 37.64104 -104.04853 29256 ft 376 kts 306°
2026-04-27 18:43 37.65986 -104.07079 28990 ft 375 kts 306°
2026-04-27 18:43 37.67886 -104.09329 28699 ft 375 kts 306°
2026-04-27 18:43 37.69787 -104.11580 28429 ft 374 kts 306°
2026-04-27 18:44 37.71688 -104.13833 28158 ft 374 kts 306°
2026-04-27 18:44 37.73586 -104.16084 27886 ft 374 kts 306°
2026-04-27 18:44 37.75479 -104.18331 27618 ft 373 kts 307°
2026-04-27 18:44 37.77371 -104.20577 27358 ft 373 kts 307°
2026-04-27 18:45 37.79259 -104.22822 27125 ft 373 kts 307°
2026-04-27 18:45 37.81149 -104.25071 26874 ft 373 kts 307°
2026-04-27 18:45 37.83039 -104.27320 26450 ft 372 kts 308°
2026-04-27 18:45 37.84920 -104.29557 25905 ft 367 kts 308°
2026-04-27 18:46 37.86771 -104.31759 25323 ft 364 kts 308°
2026-04-27 18:46 37.88606 -104.33945 24772 ft 361 kts 308°
2026-04-27 18:46 37.90427 -104.36120 24193 ft 358 kts 309°
2026-04-27 18:46 37.92239 -104.38286 23610 ft 358 kts 309°
2026-04-27 18:47 37.94047 -104.40450 22972 ft 358 kts 309°
2026-04-27 18:47 37.95823 -104.42573 22349 ft 350 kts 310°
2026-04-27 18:47 37.97570 -104.44660 21796 ft 341 kts 310°
2026-04-27 18:47 37.99270 -104.46692 21250 ft 331 kts 310°
2026-04-27 18:48 38.00923 -104.48671 20748 ft 323 kts 310°
2026-04-27 18:48 38.02551 -104.50628 19990 ft 324 kts 310°
2026-04-27 18:48 38.04189 -104.52600 19228 ft 324 kts 311°
2026-04-27 18:48 38.05826 -104.54570 18480 ft 324 kts 311°
2026-04-27 18:49 38.07458 -104.56533 17681 ft 324 kts 312°
2026-04-27 18:49 38.09095 -104.58501 16844 ft 324 kts 312°
2026-04-27 18:49 38.10730 -104.60468 16060 ft 323 kts 313°
2026-04-27 18:49 38.12339 -104.62403 15525 ft 314 kts 313°
2026-04-27 18:50 38.14023 -104.64077 14960 ft 313 kts 329°
2026-04-27 18:50 38.16070 -104.64989 14442 ft 313 kts 348°
2026-04-27 18:50 38.18249 -104.65142 13942 ft 315 kts 358°
2026-04-27 18:50 38.20454 -104.65076 13428 ft 320 kts 359°
2026-04-27 18:51 38.22693 -104.64978 12868 ft 322 kts 360°
2026-04-27 18:51 38.24910 -104.64900 12292 ft 316 kts 358°
2026-04-27 18:51 38.27086 -104.64841 11728 ft 309 kts 358°
2026-04-27 18:51 38.29194 -104.64791 11669 ft 296 kts 358°
2026-04-27 18:52 38.31228 -104.64758 11656 ft 291 kts 358°
2026-04-27 18:52 38.33243 -104.64956 11667 ft 293 kts 351°
2026-04-27 18:52 38.35348 -104.65296 11722 ft 321 kts 351°
2026-04-27 18:53 38.40115 -104.66090 10813 ft 348 kts 350°
2026-04-27 18:53 38.42459 -104.66456 10654 ft 332 kts 350°
2026-04-27 18:53 38.44695 -104.66795 10701 ft 310 kts 351°
2026-04-27 18:53 38.46799 -104.67113 10413 ft 299 kts 352°
2026-04-27 18:54 38.48802 -104.67413 10236 ft 282 kts 351°
2026-04-27 18:54 38.50690 -104.67696 10105 ft 265 kts 352°
2026-04-27 18:54 38.52451 -104.67959 10015 ft 245 kts 351°
2026-04-27 18:54 38.54072 -104.68201 9895 ft 231 kts 351°
2026-04-27 18:55 38.55614 -104.68500 9786 ft 218 kts 351°
2026-04-27 18:55 38.57100 -104.68629 9707 ft 213 kts 359°
2026-04-27 18:55 38.58595 -104.68621 9506 ft 216 kts 359°
2026-04-27 18:55 38.60098 -104.68608 9250 ft 215 kts 359°
2026-04-27 18:56 38.61568 -104.68606 9005 ft 205 kts 359°
2026-04-27 18:56 38.62923 -104.68604 8832 ft 183 kts 359°
2026-04-27 18:56 38.64134 -104.68603 8640 ft 165 kts 359°
2026-04-27 18:56 38.65261 -104.68601 8496 ft 162 kts
2026-04-27 18:57 38.66388 -104.68599 8278 ft 161 kts
2026-04-27 18:57 38.67493 -104.68598 8142 ft 159 kts
2026-04-27 18:57 38.68586 -104.68596 7951 ft 159 kts
2026-04-27 18:57 38.69696 -104.68595 7727 ft 156 kts
2026-04-27 18:58 38.70757 -104.68593 7549 ft 154 kts
2026-04-27 18:58 38.71489 -104.68591 7393 ft 155 kts
2026-04-27 18:58 38.72899 -104.68591 7118 ft 151 kts
2026-04-27 18:58 38.73936 -104.68590 6935 ft 147 kts
2026-04-27 18:59 38.74949 -104.68588 6746 ft 147 kts
2026-04-27 18:59 38.75954 -104.68573 6617 ft 144 kts
2026-04-27 18:59 38.76966 -104.68592 6475 ft 148 kts
2026-04-27 18:59 38.77996 -104.68572 6249 ft 145 kts
2026-04-27 19:00 38.78917 -104.68579 6194 ft 116 kts
2026-04-27 19:00 38.79575 -104.68579 6190 ft 73 kts
2026-04-27 19:00 38.79921 -104.68578 6194 ft 34 kts 360°
2026-04-27 19:00 38.80134 -104.68630 6195 ft 26 kts 339°
2026-04-27 19:01 38.80235 -104.68700 6193 ft 10 kts 328°
2026-04-27 19:01 38.80284 -104.68762 6194 ft 10 kts 279°
2026-04-27 19:01 38.80278 -104.68850 6193 ft 10 kts 267°
2026-04-27 19:01 38.80279 -104.68937 6193 ft 10 kts 270°
2026-04-27 19:02 38.80279 -104.69021 6193 ft 9 kts 270°
2026-04-27 19:02 38.80279 -104.69101 6193 ft 9 kts 270°
2026-04-27 19:02 38.80279 -104.69181 6193 ft 9 kts 270°
2026-04-27 19:02 38.80279 -104.69258 6193 ft 9 kts 270°
2026-04-27 19:03 38.80280 -104.69333 6193 ft 8 kts 270°
2026-04-27 19:03 38.80279 -104.69406 6193 ft 8 kts 270°
2026-04-27 19:03 38.80279 -104.69483 6193 ft 9 kts 270°
2026-04-27 19:03 38.80279 -104.69540 6193 ft 10 kts 270°
2026-04-27 19:04 38.80278 -104.69673 6193 ft 12 kts 270°
2026-04-27 19:04 38.80280 -104.69786 6193 ft 13 kts 271°
2026-04-27 19:04 38.80279 -104.69909 6193 ft 14 kts 270°
2026-04-27 19:04 38.80280 -104.70020 6193 ft 11 kts 270°
2026-04-27 19:05 38.80236 -104.70085 6193 ft 11 kts 184°
2026-04-27 19:05 38.80160 -104.70085 6193 ft 10 kts 180°
2026-04-27 19:05 38.80091 -104.70104 6193 ft 11 kts 217°
2026-04-27 19:05 38.80073 -104.70199 6193 ft 12 kts 264°
2026-04-27 19:06 38.80015 -104.70250 6193 ft 12 kts 174°
2026-04-27 19:06 38.79932 -104.70243 6193 ft 12 kts 180°
2026-04-27 19:06 38.79851 -104.70243 6193 ft 10 kts 180°
2026-04-27 19:06 38.79811 -104.70200 6193 ft 8 kts 110°
2026-04-27 19:07 38.79800 -104.70162 6193 ft 0 kts 109°
2026-04-27 19:07 38.79800 -104.70161 6193 ft 0 kts 109°
2026-04-27 19:07 38.79799 -104.70160 6193 ft 0 kts 110°
2026-04-27 19:07 38.79799 -104.70157 6193 ft 0 kts 109°